When you browse on this site, cookies collect data to enhance your experience and personalize the content and advertising you see.
Visit our Privacy Policy to learn more. By continuing to use the site, you agree to this use of cookies and data.
  • în România
  • Lista ţărilor
  • Pe 7 zile
  • Temperatura apei
  • Hartă satelitară
  • Meteo pe hartă
  • Widget-uri
  • user-avatar
    Intrare

    Meteo pe oră la Seram

    Astăzi, 17 Iulie, Miercuri

    Timp Temperatura Precipitaţii Vânt Presiune Umiditate
    00:00 +28°C° 0.8 mm 3 m/s 719 mmHg 80%
    01:00 +28°C° 0.8 mm 3 m/s 719 mmHg 81%
    02:00 +27°C° 0.8 mm 4 m/s 719 mmHg 82%
    03:00 +27°C° 0.2 mm 4 m/s 719 mmHg 83%
    04:00 +27°C° 0.2 mm 3 m/s 719 mmHg 84%
    05:00 +26°C° 0 mm 3 m/s 719 mmHg 89%
    06:00 +27°C° 0.1 mm 3 m/s 719 mmHg 84%
    07:00 +28°C° 0.1 mm 4 m/s 719 mmHg 80%
    08:00 +29°C° 0.1 mm 5 m/s 719 mmHg 75%
    09:00 +30°C° 0.9 mm 5 m/s 719 mmHg 72%
    10:00 +32°C° 0.9 mm 5 m/s 719 mmHg 69%
    11:00 +33°C° 0.9 mm 5 m/s 719 mmHg 65%
    12:00 +33°C° 1.2 mm 5 m/s 719 mmHg 64%
    13:00 +33°C° 1.2 mm 5 m/s 718 mmHg 63%
    14:00 +33°C° 1.2 mm 5 m/s 717 mmHg 63%
    15:00 +33°C° 2 mm 4 m/s 717 mmHg 67%
    16:00 +31°C° 2 mm 3 m/s 717 mmHg 71%
    17:00 +30°C° 2 mm 2 m/s 717 mmHg 76%
    18:00 +30°C° 1.4 mm 1 m/s 717 mmHg 76%
    19:00 +29°C° 1.4 mm 1 m/s 718 mmHg 77%
    20:00 +29°C° 1.4 mm 1 m/s 718 mmHg 77%
    21:00 +29°C° 0.1 mm 1 m/s 718 mmHg 77%
    22:00 +29°C° 0.1 mm 2 m/s 718 mmHg 77%
    23:00 +29°C° 0.1 mm 2 m/s 718 mmHg 77%

    Mâine, 18 Iulie, Joi

    Timp Temperatura Precipitaţii Vânt Presiune Umiditate
    00:00 +28°C° 0.5 mm 3 m/s 718 mmHg 78%
    01:00 +28°C° 0.5 mm 4 m/s 717 mmHg 80%
    02:00 +27°C° 0.5 mm 5 m/s 717 mmHg 81%
    03:00 +27°C° 0.4 mm 5 m/s 717 mmHg 82%
    04:00 +27°C° 0.4 mm 5 m/s 717 mmHg 82%
    05:00 +26°C° 0.4 mm 5 m/s 717 mmHg 83%
    06:00 +27°C° 0.3 mm 5 m/s 717 mmHg 81%
    07:00 +28°C° 0.3 mm 6 m/s 718 mmHg 78%
    08:00 +28°C° 0.3 mm 6 m/s 718 mmHg 76%
    09:00 +29°C° 0.6 mm 6 m/s 718 mmHg 73%
    10:00 +30°C° 0.6 mm 6 m/s 719 mmHg 69%
    11:00 +32°C° 0.6 mm 6 m/s 719 mmHg 66%
    12:00 +33°C° 1 mm 6 m/s 718 mmHg 64%
    13:00 +33°C° 1 mm 5 m/s 717 mmHg 62%
    14:00 +33°C° 1 mm 5 m/s 717 mmHg 61%
    15:00 +33°C° 2 mm 4 m/s 716 mmHg 63%
    16:00 +32°C° 2 mm 4 m/s 716 mmHg 66%
    17:00 +31°C° 2 mm 3 m/s 716 mmHg 69%
    18:00 +30°C° 1.6 mm 3 m/s 716 mmHg 71%
    19:00 +30°C° 1.6 mm 3 m/s 717 mmHg 73%
    20:00 +29°C° 1.6 mm 2 m/s 717 mmHg 74%
    21:00 +29°C° 0.2 mm 2 m/s 717 mmHg 75%
    22:00 +29°C° 0.2 mm 2 m/s 717 mmHg 75%
    23:00 +29°C° 0.2 mm 2 m/s 717 mmHg 75%

    Poimâine, 19 Iulie, Vineri

    Timp Temperatura Precipitaţii Vânt Presiune Umiditate
    00:00 +28°C° 0.4 mm 3 m/s 717 mmHg 76%
    01:00 +28°C° 0.4 mm 4 m/s 716 mmHg 77%
    02:00 +28°C° 0.4 mm 4 m/s 716 mmHg 78%
    03:00 +27°C° 0.1 mm 4 m/s 716 mmHg 80%
    04:00 +27°C° 0.1 mm 4 m/s 716 mmHg 82%
    05:00 +26°C° 0.1 mm 4 m/s 716 mmHg 83%
    06:00 +27°C° 0 mm 4 m/s 717 mmHg 81%
    07:00 +28°C° 0 mm 5 m/s 717 mmHg 78%
    08:00 +28°C° 0 mm 5 m/s 717 mmHg 75%
    09:00 +29°C° 0.1 mm 5 m/s 717 mmHg 72%
    10:00 +30°C° 0.1 mm 4 m/s 717 mmHg 68%
    11:00 +32°C° 0.1 mm 4 m/s 717 mmHg 64%
    12:00 +33°C° 0.1 mm 4 m/s 717 mmHg 62%
    13:00 +34°C° 0.1 mm 4 m/s 716 mmHg 60%
    14:00 +34°C° 0.1 mm 4 m/s 715 mmHg 57%
    15:00 +34°C° 1.3 mm 4 m/s 715 mmHg 61%
    16:00 +33°C° 1.3 mm 3 m/s 715 mmHg 64%
    17:00 +31°C° 1.3 mm 3 m/s 714 mmHg 68%
    18:00 +31°C° 1.1 mm 2 m/s 715 mmHg 72%
    19:00 +30°C° 1.1 mm 2 m/s 715 mmHg 76%
    20:00 +29°C° 1.1 mm 1 m/s 716 mmHg 79%
    21:00 +28°C° 1 mm 2 m/s 716 mmHg 82%
    22:00 +28°C° 1 mm 2 m/s 716 mmHg 85%
    23:00 +27°C° 1 mm 3 m/s 716 mmHg 88%

    20 Iulie, Sâmbătă

    Timp Temperatura Precipitaţii Vânt Presiune Umiditate
    00:00 +26°C° 7.4 mm 3 m/s 716 mmHg 91%
    01:00 +26°C° 7.4 mm 3 m/s 715 mmHg 93%
    02:00 +25°C° 7.4 mm 4 m/s 715 mmHg 96%
    03:00 +25°C° 2.7 mm 4 m/s 715 mmHg 95%
    04:00 +25°C° 2.7 mm 4 m/s 715 mmHg 95%
    05:00 +25°C° 2.7 mm 4 m/s 715 mmHg 95%
    06:00 +26°C° 1.3 mm 5 m/s 716 mmHg 93%
    07:00 +26°C° 1.3 mm 5 m/s 717 mmHg 91%
    08:00 +27°C° 1.3 mm 6 m/s 717 mmHg 90%
    09:00 +28°C° 0.1 mm 6 m/s 717 mmHg 86%
    10:00 +28°C° 0.1 mm 6 m/s 717 mmHg 82%
    11:00 +29°C° 0.1 mm 7 m/s 717 mmHg 78%
    12:00 +30°C° 0.1 mm 7 m/s 717 mmHg 75%
    13:00 +32°C° 0.1 mm 7 m/s 716 mmHg 72%
    14:00 +32°C° 0.1 mm 7 m/s 716 mmHg 70%
    15:00 +32°C° 0.6 mm 7 m/s 715 mmHg 71%
    16:00 +30°C° 0.6 mm 6 m/s 715 mmHg 72%
    17:00 +30°C° 0.6 mm 6 m/s 715 mmHg 74%
    18:00 +29°C° 0.1 mm 5 m/s 715 mmHg 77%
    19:00 +29°C° 0.1 mm 4 m/s 716 mmHg 80%
    20:00 +28°C° 0.1 mm 3 m/s 716 mmHg 83%
    21:00 +28°C° 0.1 mm 3 m/s 716 mmHg 84%
    22:00 +28°C° 0.1 mm 3 m/s 717 mmHg 85%
    23:00 +27°C° 0.1 mm 3 m/s 717 mmHg 87%

    21 Iulie, Duminică

    Timp Temperatura Precipitaţii Vânt Presiune Umiditate
    00:00 +27°C° 0.1 mm 3 m/s 716 mmHg 87%
    01:00 +27°C° 0.1 mm 4 m/s 716 mmHg 87%
    02:00 +26°C° 0.1 mm 4 m/s 715 mmHg 88%
    03:00 +26°C° 0 mm 4 m/s 715 mmHg 88%
    04:00 +26°C° 0 mm 3 m/s 715 mmHg 88%
    05:00 +26°C° 0 mm 3 m/s 715 mmHg 88%
    06:00 +27°C° 0 mm 3 m/s 716 mmHg 86%
    07:00 +27°C° 0 mm 4 m/s 716 mmHg 83%
    08:00 +28°C° 0 mm 4 m/s 717 mmHg 81%
    09:00 +29°C° 0 mm 4 m/s 717 mmHg 78%
    10:00 +30°C° 0 mm 4 m/s 717 mmHg 75%
    11:00 +32°C° 0 mm 4 m/s 717 mmHg 72%
    12:00 +32°C° 0.7 mm 4 m/s 716 mmHg 70%
    13:00 +32°C° 0.7 mm 4 m/s 715 mmHg 69%
    14:00 +33°C° 0.7 mm 4 m/s 714 mmHg 68%
    15:00 +33°C° 1.3 mm 4 m/s 714 mmHg 70%
    16:00 +32°C° 1.3 mm 4 m/s 714 mmHg 71%
    17:00 +32°C° 1.3 mm 4 m/s 714 mmHg 72%
    18:00 +30°C° 0.9 mm 3 m/s 714 mmHg 76%
    19:00 +30°C° 0.9 mm 3 m/s 715 mmHg 79%
    20:00 +29°C° 0.9 mm 2 m/s 715 mmHg 82%
    21:00 +29°C° 3.6 mm 2 m/s 716 mmHg 84%
    22:00 +28°C° 3.6 mm 2 m/s 716 mmHg 85%
    23:00 +28°C° 3.6 mm 3 m/s 716 mmHg 86%

    22 Iulie, Luni

    Timp Temperatura Precipitaţii Vânt Presiune Umiditate
    00:00 +27°C° 1.1 mm 3 m/s 715 mmHg 88%
    01:00 +27°C° 1.1 mm 4 m/s 715 mmHg 89%
    02:00 +27°C° 1.1 mm 4 m/s 715 mmHg 90%
    03:00 +26°C° 0.1 mm 4 m/s 715 mmHg 91%
    04:00 +26°C° 0.1 mm 5 m/s 715 mmHg 92%
    05:00 +26°C° 0.1 mm 5 m/s 715 mmHg 92%
    06:00 +27°C° 0 mm 5 m/s 715 mmHg 89%
    07:00 +27°C° 0 mm 6 m/s 716 mmHg 86%
    08:00 +28°C° 0 mm 6 m/s 716 mmHg 83%
    09:00 +29°C° 0.1 mm 6 m/s 716 mmHg 80%
    10:00 +30°C° 0.1 mm 6 m/s 716 mmHg 77%
    11:00 +32°C° 0.1 mm 6 m/s 716 mmHg 74%
    12:00 +32°C° 1.2 mm 6 m/s 715 mmHg 73%
    13:00 +32°C° 1.2 mm 5 m/s 715 mmHg 71%
    14:00 +33°C° 1.2 mm 5 m/s 714 mmHg 69%
    15:00 +32°C° 3.1 mm 5 m/s 713 mmHg 72%
    16:00 +30°C° 3.1 mm 4 m/s 713 mmHg 76%
    17:00 +30°C° 3.1 mm 4 m/s 713 mmHg 79%
    18:00 +29°C° 3.4 mm 4 m/s 713 mmHg 82%
    19:00 +28°C° 3.4 mm 4 m/s 714 mmHg 85%
    20:00 +27°C° 3.4 mm 5 m/s 715 mmHg 88%
    21:00 +27°C° 3.4 mm 5 m/s 715 mmHg 90%
    22:00 +26°C° 3.4 mm 5 m/s 715 mmHg 92%
    23:00 +26°C° 3.4 mm 5 m/s 715 mmHg 94%
    Arată mai mult